Location: Penna
(43.5667°N, 11.6167°E)
Time: 04:30:58
(UTC+00:00)

Daily predictions for brighter satellites

Satellite Brightness Start Highest point End
(mag) Time Altitude Azimuth Time Altitude Azimuth Time Altitude Azimuth
ATLAS 3B R/B 4.4 01:45:13 24° NNE 01:46:48 26° NNE 01:52:22 10° E
CENTAUR R/B 4.3 01:53:12 23° NNW 01:57:24 38° NE 02:05:14 10° ESE
ATLAS 2AS CENTAUR R/B 3.5 02:11:46 50° SE 02:12:36 52° ESE 02:20:21 10° NE
USA 238 DEB 4.2 02:19:34 57° SE 02:19:34 57° SE 02:25:20 10° SE
USA 238 4.2 02:19:36 58° ESE 02:19:36 58° ESE 02:25:26 10° SE
Cosmos 2278 Rocket 3.5 02:21:50 33° NNE 02:23:15 38° ENE 02:28:29 10° SE
IDEFIX/ARIANE 42P 3.7 02:24:22 10° NNE 02:29:17 38° E 02:29:24 38° E
Cosmos 2333 Rocket 3.1 02:32:36 43° NNE 02:32:36 43° NNE 02:36:23 10° NNE
NOSS 3-2 (A) 3.9 02:40:40 63° NW 02:42:13 88° SW 02:50:40 10° SSE
COSMOS 2455 3.9 02:44:50 34° N 02:44:50 34° N 02:48:38 10° NNE
USA 267 3.1 02:41:51 10° NE 02:48:22 73° NW 02:48:26 73° NW
Cosmos 2219 Rocket 2.8 02:52:52 46° N 02:52:52 46° N 02:56:52 10° NNE
H-2A R/B 4.1 02:49:10 10° NNE 02:53:00 33° E 02:53:51 31° ESE
Aureole 1 Rocket 4.3 02:54:47 44° N 02:54:47 44° N 02:58:02 10° NNE
Cosmos 407 Rocket 4.2 02:55:47 40° SE 02:56:58 49° ESE 03:01:54 10° NNE
Cosmos 2237 Rocket 2.6 03:01:06 42° SSE 03:02:47 60° ESE 03:08:24 10° NNE
NOSS 3-2 (C) 4.0 03:02:05 27° NW 03:06:51 90° SW 03:15:19 10° SE
Cosmos 1709 Rocket 4.4 03:09:12 47° NW 03:09:12 47° NW 03:14:15 10° N
Cosmos 2184 Rocket 4.2 03:08:44 10° S 03:14:53 70° E 03:21:08 10° NNE
Cosmos 1953 3.7 03:13:43 10° N 03:17:32 39° ENE 03:21:17 10° SSE
NOSS 0 Rocket 3.8 03:16:32 51° SSW 03:18:15 85° WNW 03:24:29 10° NNE
Cosmos 1980 3.6 03:18:36 48° SSW 03:20:15 88° ESE 03:25:56 10° NNE
USA 234 3.2 03:15:13 10° SE 03:21:46 90° ENE 03:25:14 31° NW
COSMOS 2428 3.3 03:22:32 39° NW 03:22:32 39° NW 03:27:10 10° NNE
ADEOS 3.4 03:17:02 10° N 03:22:15 74° WNW 03:23:07 61° SW
USA 32 3.9 03:19:41 27° S 03:22:38 89° W 03:27:55 10° N
NOSS 3-4 (A) 3.3 03:21:01 45° SSW 03:23:02 88° SE 03:29:25 10° NE
NOSS 3-4 (C) 3.3 03:21:03 44° SSW 03:23:07 87° SE 03:29:31 10° NE
Cosmos 1025 Rocket 4.3 03:26:26 28° N 03:26:26 28° N 03:28:34 10° N
Cosmos 2360 Rocket 4.1 03:26:52 15° NNW 03:26:52 15° NNW 03:28:51 10° N
PSLV R/B 4.4 03:24:06 10° N 03:26:52 38° NNW 03:26:52 38° NNW
MSX 3.7 03:24:27 10° NNE 03:30:13 88° E 03:35:57 10° SSW
Meteor 1-31 Rocket 3.9 03:29:35 10° NNE 03:33:14 43° E 03:36:51 10° S
Cosmos 1707 2.8 03:32:19 39° S 03:33:40 75° E 03:37:36 10° NNE
Meteor 1-4 Rocket 3.3 03:32:39 21° SSE 03:34:44 50° E 03:38:07 10° NNE
Cosmos 1140 Rocket 3.6 03:33:17 15° SSW 03:37:34 77° ESE 03:42:45 10° NNE
Cosmos 614 Rocket 3.8 03:35:56 38° SW 03:37:56 74° WNW 03:43:10 10° NNE
ATLAS 3B R/B 2.6 03:32:32 15° NW 03:38:18 88° WSW 03:45:12 10° SSE
PAYLOAD A 3.8 03:40:52 10° NNE 03:45:45 83° WNW 03:50:47 10° SSW
Cosmos 2074 Rocket 3.9 03:39:38 10° SSW 03:45:50 67° W 03:52:03 10° N
BREEZE-M R/B 4.5 03:43:31 32° WNW 03:45:51 52° N 03:56:00 10° ENE
Milstar 3 Cent rocket 4.5 03:45:06 10° S 03:46:49 11° S 03:48:24 10° SSE
Cosmos 389 Rocket 2.5 03:47:28 59° NNW 03:47:28 59° NNW 03:50:27 10° N
Cosmos 2058 Rocket 4.5 03:44:21 10° N 03:48:31 39° ENE 03:52:41 10° SSE
RESURS DK-1 3.1 03:44:38 10° S 03:48:37 53° ESE 03:52:39 10° NE
CENTAUR R/B 3.1 03:40:45 10° NW 03:48:50 73° WSW 03:57:30 10° SSE
COSMOS 2441 4.4 03:50:08 10° N 03:54:58 59° WNW 03:59:36 11° SSW
SL-16 R/B 2.7 03:51:10 10° S 03:56:43 62° ESE 04:02:20 10° NNE
Meteor 1-16 Rocket 4.2 03:55:10 10° N 04:00:30 78° E 04:05:53 10° SSE
ATLAS 2AS CENTAUR R/B 3.4 03:59:16 25° WSW 04:03:48 47° NW 04:11:31 10° NNE
Cosmos 1356 3.5 04:02:21 10° N 04:05:48 77° ENE 04:09:15 10° SSE
CZ-4B R/B 3.8 04:02:15 10° N 04:06:15 75° WNW 04:10:25 10° SSW
Cosmos 2278 Rocket 2.7 04:03:52 18° NW 04:07:15 34° WSW 04:12:18 10° SSW
IDEFIX/ARIANE 42P 3.4 04:04:15 10° N 04:08:42 29° WNW 04:10:12 25° W
Cosmos 2297 3.8 04:03:36 10° NNW 04:09:23 80° ENE 04:15:08 10° SSE
Cosmos 44 3.7 04:09:41 29° W 04:10:21 30° WSW 04:14:08 10° S
Cosmos 1892 Rocket 3.5 04:07:06 10° S 04:11:32 90° SW 04:15:57 10° N
Cosmos 2333 Rocket 3.6 04:14:39 18° WNW 04:15:41 18° NW 04:19:35 10° N
ERBS 4.1 04:15:31 17° NW 04:15:59 18° NNW 04:18:22 10° NNE
Cosmos 44 Rocket 3.4 04:17:21 10° NNW 04:22:06 75° NE 04:26:46 10° SE
CZ-2C R/B 2.7 04:17:24 10° N 04:22:23 48° WNW 04:27:17 10° SW
Cosmos 1606 Rocket 3.8 04:19:57 10° NNW 04:24:03 43° W 04:28:08 10° SSW
GP-B 3.0 04:20:07 10° S 04:24:33 76° W 04:29:00 10° N
COBE Rocket 4.0 04:21:27 10° SSE 04:26:30 88° W 04:31:40 10° NNW
H-2A R/B 3.7 04:25:00 10° NNW 04:28:19 23° WNW 04:30:25 16° WSW
Cosmos 676 Rocket 4.2 04:24:17 10° SW 04:29:23 49° WNW 04:34:30 10° N
USA 267 4.2 04:25:03 10° NE 04:30:47 34° NNW 04:35:47 13° WNW
Cosmos 1437 Rocket 2.6 04:32:30 10° SSW 04:36:15 63° WNW 04:40:01 10° N
Cosmos 2219 Rocket 3.9 04:34:37 12° WNW 04:36:20 13° NW 04:38:57 10° NNW
KORONAS-FOTON 3.8 04:33:20 10° S 04:37:06 82° E 04:40:54 10° N
Meteor 2-5 Rocket 3.9 04:31:36 10° S 04:37:24 88° E 04:43:21 10° N
Meteor PRIRODA 4.0 04:35:36 10° N 04:39:10 43° WNW 04:42:43 10° SW
USA 116 3.7 04:36:36 10° SSE 04:40:23 76° ENE 04:43:47 10° N
Meteor 2-10 4.1 04:37:58 10° NNW 04:43:04 55° W 04:48:19 10° S
PSLV R/B 3.9 04:41:18 10° N 04:44:50 44° WNW 04:48:21 10° SW
Cosmos 1626 Rocket 3.8 04:42:57 10° S 04:47:14 75° E 04:51:34 10° NNE
Okean 1-7 Rocket 4.1 04:43:06 10° SW 04:47:14 37° WNW 04:51:26 10° N
Cosmos 2237 Rocket 3.3 04:43:00 11° WSW 04:47:17 24° NW 04:51:51 10° N
Cosmos 2218 Rocket 4.3 04:41:17 10° S 04:47:39 80° E 04:54:00 10° N
In-Cosmos 22 4.4 04:43:04 10° SSW 04:48:12 46° WNW 04:53:29 10° N
BREEZE-M DEB (TANK) 2.7 04:47:04 14° W 04:48:44 34° SSW 04:51:21 10° SE
COSMO-SKYMED 1 2.8 04:48:32 10° S 04:52:44 50° W 04:56:59 10° NNW
CZ-4B R/B 4.0 04:50:03 10° NNW 04:53:12 23° WNW 04:56:13 10° WSW
Cosmos 1953 3.9 04:51:08 10° NW 04:53:34 16° W 04:55:59 10° WSW
CZ-4B DEB 4.2 04:48:43 10° N 04:54:11 70° WNW 04:59:35 10° SSW
Meteor 2-17 Rocket 4.4 04:49:27 10° SSW 04:55:28 63° W 05:01:29 10° N
Cosmos 1908 3.3 04:53:42 10° NNW 04:57:26 51° W 05:01:08 10° S
Cosmos 2228 4.2 04:57:18 10° NW 05:00:27 20° W 05:03:34 10° SW
Cosmos 2369 Rocket 2.8 04:56:57 10° NNW 05:02:31 62° ENE 05:08:02 10° SE
PAYLOAD B 4.3 04:59:14 10° N 05:04:44 64° WNW 05:10:11 10° SSW
USA 234 4.3 05:00:02 10° S 05:05:18 26° SW 05:10:35 10° WNW
